Location: Te Maire Creek
(41.1333°S, 175.9167°E)
Time: 00:23:06
(UTC+00:00)

SL-08 R/B - Pass Details

Date: 19 May 2024
Orbit: 670 x 733 km, 98.5° (Epoch: 18 June)

Event Time Altitude Azimuth Distance (km) Brightness Sun altitude
Rises 18:47:17 0° 163° (SSE) 3,059 6.6 -6.8°
Reaches altitude 10° 18:49:34 10° 159° (SSE) 2,135 5.8 -6.4°
Maximum altitude 18:54:11 61° 79° (ENE) 776 4.0 -5.6°
Drops below altitude 10° 18:58:44 10° 358° (N) 2,114 6.1 -4.8°
Sets 19:00:59 0° 354° (N) 3,025 6.8 -4.4°
